Regional Weather Roundup
Issued by NWS

Home | Current Version | Previous Version | Graphics & Text | Print | Product List | Glossary On
Versions: 1 2 3 4 5 6 7 8 9 10 11 12 13 14 15 16 17 18 19 20 21 22 23 24 25 26 27 28 29 30 31 32 33 34 35 36 37 38 39 40 41 42 43 44 45 46 47 48 49 50
000
ASUS43 KIND 281309
RWRIN

WEATHER ROUNDUP FOR INDIANA
NATIONAL WEATHER SERVICE INDIANAPOLIS IN
800 AM EST FRI NOV 28 2014

NOTE: "FAIR" INDICATES FEW OR NO CLOUDS BELOW 12,000 FEET WITH NO
SIGNIFICANT WEATHER AND/OR OBSTRUCTIONS TO VISIBILITY.

* - STATION DOES NOT REPORT WEATHER SUCH AS PRECIPITATION OR FOG.

+ - STATION NOT QUALITY CONTROLLED BY THE NATIONAL WEATHER SERVICE.
    USE DATA WITH CAUTION...ESPECIALLY DEWPOINT AND RELATIVE
    HUMIDITY OBSERVATIONS.

INZ001>003-010>013-019-020-281400-
NORTHWEST INDIANA

CITY           SKY/WX    TMP DP  RH WIND       PRES   REMARKS
GARY /AIRPORT/ CLOUDY    23  14  68 S7        30.31F WCI  15
KNOX *+        CLOUDY    21  16  79 S6        30.32F WCI  13
LA PORTE +     CLOUDY    23  16  77 S5        30.31F WCI  16
MICHIGAN CITY+ CLOUDY    21  12  68 S3        30.32F
MONTICELLO +   CLOUDY    22  16  80 S5        30.34S WCI  15
RENSSELAER +   CLOUDY    23  21  93 S8        30.33F WCI  14
VALPARAISO     CLOUDY    20  15  81 S9        30.31F WCI   9

$$

LMZ046-743>745-281400-
SOUTHERN LAKE MICHIGAN

STATION/POSITION TIME  TEMP WIND        PRES
                       AIR  DIR/SP/G
                 (UTC) (F)  (DEG/KT/KT) (MB)
MICHIGAN CITY    1300   22  160/  7/  9   N/A

$$

INZ004-005-014>016-021>024-281400-
NORTH CENTRAL INDIANA

CITY           SKY/WX    TMP DP  RH WIND       PRES   REMARKS
GOSHEN         CLOUDY    20  16  84 SE5       30.32F WCI  13
LOGANSPORT +   CLOUDY    23  16  74 S5        30.35S WCI  17
PERU/GRISSOM   CLOUDY    22  21  97 S5        30.34S WCI  15
ROCHESTER +    CLOUDY    25  18  74 S5        30.34S WCI  19
SOUTH BEND     CLOUDY    20  15  81 S5        30.32F WCI  13
WARSAW +       MOCLDY    21  16  79 CALM      30.33S

$$

INZ006>009-017-018-025>027-281400-
NORTHEAST INDIANA

CITY           SKY/WX    TMP DP  RH WIND       PRES   REMARKS
ANGOLA *+      MOCLDY    19  14  79 CALM      30.31F
AUBURN +       MOCLDY    21  18  86 CALM      30.35F
FORT WAYNE     CLOUDY    22  15  75 SE3       30.35F
HUNTINGTON +   CLOUDY    22  18  85 CALM      30.34F

$$

INZ028-029-035-036-043>045-051>053-281400-
WEST CENTRAL INDIANA

CITY           SKY/WX    TMP DP  RH WIND       PRES   REMARKS
CRAWFORDSVL +  CLOUDY    19  16  86 S8        30.35  WCI   9
GREENCASTLE +  CLOUDY    21  18  86 S3        30.36S
LAFAYETTE      CLOUDY    21  17  84 S5        30.35S WCI  15
TERRE HAUTE    MOCLDY    22  17  81 SE7       30.36F WCI  13

$$

INZ030>032-037>040-046>048-054>057-064-065-281400-
CENTRAL INDIANA

CITY           SKY/WX    TMP DP  RH WIND       PRES   REMARKS
CP ATTERBURY + CLOUDY    27  19  74 S5        30.38F WCI  21
FRANKFORT +    CLOUDY    22  20  91 SE5       30.36R WCI  16
GREENWOOD *+   CLOUDY    23  18  80 S5        30.37S WCI  17
INDIANAPOLIS   CLOUDY    22  17  81 S8        30.35F WCI  12
-EAGLE CREEK   CLOUDY    22  17  81 S6        30.35F WCI  14
KOKOMO *+      CLOUDY    21  18  86 S5        30.34S WCI  15
MARION +         N/A     22  18  86 S3        30.35S
MT COMFORT *+  MOCLDY    23  19  86 S8        30.34F WCI  14
SHELBYVILLE    CLOUDY    25  18  74 S6        30.36F WCI  18
ZIONSVILLE +   CLOUDY    23  19  84 S7        30.35S WCI  14

$$

INZ033-034-041-042-049-050-058-059-281400-
EAST CENTRAL INDIANA

CITY           SKY/WX    TMP DP  RH WIND       PRES   REMARKS
MUNCIE         CLOUDY    23  17  78 SE5       30.34F WCI  17

$$

INZ060-061-067>069-081>083-085>088-281400-
SOUTHWEST INDIANA

CITY           SKY/WX    TMP DP  RH WIND       PRES   REMARKS
EVANSVILLE     MOCLDY    28  22  78 SE5       30.41F WCI  23
HUNTINGBURG *+ CLOUDY    25  19  80 S6        30.42S WCI  18
WASHINGTON +   CLOUDY    25  22  87 S7        30.40S WCI  17

$$

INZ062-063-066-070>080-084-089>092-281400-
SOUTH CENTRAL AND SOUTHEAST INDIANA

CITY           SKY/WX    TMP DP  RH WIND       PRES   REMARKS
BLOOMINGTON    CLOUDY    22  18  85 SW7       30.37F WCI  13
NORTH VERNON + CLOUDY    27  21  80 CALM      30.39
SEYMOUR +      CLOUDY    27  21  80 S5        30.40  WCI  21

$$



USA.gov is the U.S. government's official web portal to all federal, state and local government web resources and services.